FDX66G TNCS-TFFJ

Flight info

Callsign FDX66G
Flight time 0h 12m
Altitude 3500
Route 175416N0625308W
Aircraft C208/L-SDFGR/C

Departure

Time 2026-04-26 01:08
Airport Juancho E. Yrausquin Airport (TNCS)

Arrival

Time 2026-04-26 01:21
Airport St. Jean Airport (TFFJ)
Time Latitude Longitude Altitude Speed Heading
2026-04-26 01:02 17.64454 -63.22020 133 ft 0 kts 149°
2026-04-26 01:05 17.64461 -63.22015 129 ft 6 kts 327°
2026-04-26 01:05 17.64469 -63.22020 132 ft 0 kts 327°
2026-04-26 01:06 17.64469 -63.22021 132 ft 1 kts 327°
2026-04-26 01:06 17.64511 -63.22028 135 ft 10 kts
2026-04-26 01:06 17.64557 -63.22116 142 ft 18 kts 292°
2026-04-26 01:07 17.64594 -63.22226 147 ft 11 kts 295°
2026-04-26 01:07 17.64603 -63.22221 147 ft 6 kts 114°
2026-04-26 01:07 17.64601 -63.22217 147 ft 0 kts 110°
2026-04-26 01:07 17.64547 -63.22078 139 ft 55 kts 112°
2026-04-26 01:08 17.64342 -63.21529 227 ft 97 kts 107°
2026-04-26 01:08 17.64255 -63.20771 406 ft 113 kts 80°
2026-04-26 01:08 17.64650 -63.19994 583 ft 132 kts 55°
2026-04-26 01:08 17.65213 -63.19165 765 ft 143 kts 55°
2026-04-26 01:09 17.65805 -63.18327 930 ft 142 kts 54°
2026-04-26 01:09 17.66402 -63.17507 1105 ft 141 kts 53°
2026-04-26 01:09 17.66989 -63.16702 1273 ft 140 kts 53°
2026-04-26 01:09 17.67579 -63.15893 1442 ft 139 kts 53°
2026-04-26 01:10 17.68051 -63.15244 1580 ft 140 kts 53°
2026-04-26 01:10 17.68637 -63.14440 1745 ft 140 kts 54°
2026-04-26 01:10 17.69232 -63.13622 1920 ft 141 kts 54°
2026-04-26 01:10 17.69831 -63.12799 2091 ft 142 kts 54°
2026-04-26 01:11 17.70426 -63.11980 2256 ft 143 kts 54°
2026-04-26 01:11 17.71029 -63.11151 2429 ft 143 kts 54°
2026-04-26 01:11 17.71634 -63.10319 2603 ft 144 kts 54°
2026-04-26 01:11 17.72244 -63.09482 2768 ft 144 kts 54°
2026-04-26 01:12 17.72852 -63.08646 2941 ft 146 kts 54°
2026-04-26 01:12 17.73472 -63.07793 3112 ft 147 kts 54°
2026-04-26 01:12 17.74094 -63.06936 3279 ft 148 kts 54°
2026-04-26 01:12 17.74720 -63.06074 3444 ft 148 kts 54°
2026-04-26 01:13 17.75337 -63.05224 3613 ft 148 kts 54°
2026-04-26 01:13 17.75966 -63.04360 3781 ft 148 kts 54°
2026-04-26 01:13 17.76589 -63.03503 3949 ft 148 kts 54°
2026-04-26 01:13 17.77230 -63.02619 3986 ft 157 kts 54°
2026-04-26 01:14 17.77899 -63.01697 3995 ft 161 kts 54°
2026-04-26 01:14 17.78570 -63.00771 3995 ft 157 kts 54°
2026-04-26 01:14 17.79231 -62.99864 3992 ft 155 kts 54°
2026-04-26 01:14 17.79884 -62.98965 3990 ft 154 kts 54°
2026-04-26 01:15 17.80533 -62.98069 3992 ft 154 kts 54°
2026-04-26 01:15 17.81186 -62.97173 3980 ft 155 kts 54°
2026-04-26 01:15 17.81841 -62.96271 3889 ft 152 kts 54°
2026-04-26 01:15 17.82434 -62.95442 3650 ft 134 kts 55°
2026-04-26 01:16 17.82973 -62.94693 3406 ft 126 kts 56°
2026-04-26 01:16 17.83495 -62.93973 3169 ft 122 kts 55°
2026-04-26 01:16 17.84101 -62.93380 2924 ft 121 kts 27°
2026-04-26 01:16 17.84863 -62.93013 2697 ft 120 kts 27°
2026-04-26 01:17 17.85612 -62.92640 2463 ft 119 kts 27°
2026-04-26 01:17 17.86351 -62.92279 2254 ft 117 kts 28°
2026-04-26 01:17 17.87083 -62.91927 2031 ft 115 kts 27°
2026-04-26 01:17 17.87810 -62.91571 1731 ft 118 kts 30°
2026-04-26 01:18 17.88424 -62.91074 1589 ft 106 kts 48°
2026-04-26 01:18 17.88873 -62.90477 1406 ft 101 kts 58°
2026-04-26 01:18 17.89215 -62.89898 1285 ft 90 kts 62°
2026-04-26 01:18 17.89522 -62.89325 1178 ft 95 kts 62°
2026-04-26 01:19 17.89794 -62.88735 1079 ft 89 kts 67°
2026-04-26 01:19 17.90017 -62.88189 1031 ft 76 kts 70°
2026-04-26 01:19 17.90215 -62.87682 953 ft 70 kts 72°
2026-04-26 01:19 17.90334 -62.87202 820 ft 73 kts 79°
2026-04-26 01:20 17.90388 -62.86669 752 ft 71 kts 87°
2026-04-26 01:20 17.90412 -62.86169 650 ft 67 kts 91°
2026-04-26 01:20 17.90412 -62.85666 522 ft 71 kts 93°
2026-04-26 01:20 17.90421 -62.85146 353 ft 73 kts 91°
2026-04-26 01:21 17.90432 -62.84581 58 ft 79 kts 90°
2026-04-26 01:21 17.90452 -62.84113 18 ft 34 kts 89°
2026-04-26 01:21 17.90445 -62.84101 16 ft 10 kts 276°
2026-04-26 01:21 17.90442 -62.84199 25 ft 18 kts 271°
2026-04-26 01:22 17.90439 -62.84361 35 ft 17 kts 268°
2026-04-26 01:22 17.90385 -62.84419 40 ft 16 kts 252°
2026-04-26 01:22 17.90377 -62.84460 43 ft 0 kts 264°